Weather History for KSMO - February, 2014

Change the Weather History Date:

Thursday, February 20, 2014

  Actual Average Record
Temperature  
Mean Temperature 64 °F -  
Max Temperature 75 °F 69 °F 81 °F (1973)
Min Temperature 52 °F 48 °F 35 °F (1945)
Degree Days  
Heating Degree Days 2    
Growing Degree Days 14 (Base 50)    
Moisture  
Dew Point 49 °F    
Average Humidity 62    
Maximum Humidity 89    
Minimum Humidity 39    
Precipitation  
Precipitation 0.00 in - - ()
Sea Level Pressure  
Sea Level Pressure 29.98 in    
Wind  
Wind Speed 4 mph (SE)    
Max Wind Speed 9 mph    
Max Gust Speed -    
Visibility 8 miles    
Events      
Averages and records for this station are not official NWS values.
T = Trace of Precipitation, MM = Missing Value Source: NWS Daily Summary

Daily Weather History Graph

Daily Weather History Graph

Search for Another Location

Airport or City:

Trip Planner

Search our weather history database for the weather conditions in past years. The results will help you decide how hot, cold, wet, or windy it might be!

Date:

Astronomy

Feb. 20, 2014 Rise Set
Actual Time 6:33 AM PST 5:42 PM PST
Civil Twilight 6:07 AM PST 6:07 PM PST
Nautical Twilight 5:38 AM PST 6:37 PM PST
Astronomical Twilight 5:09 AM PST 7:06 PM PST
Moon 11:23 PM PST (2/20) 9:35 AM PST (2/20)
Length of Visible Light 12h 00m
Length of Day
11h 09m
Waning Gibbous, 70% of the Moon is Illuminated
Feb 20
Waning Gibbous
Feb 22
Last Quarter
Mar 1
New
Mar 8
First Quarter
Mar 16
Full

Hourly Weather History & Observations

Time (PST) Temp. Dew Point Humidity Pressure Visibility Wind Dir Wind Speed Gust Speed Precip Events Conditions
12:51 AM 64.9 °F 41.0 °F 42% 29.96 in 10.0 mi Variable 4.6 mph - N/A   Clear
1:51 AM 55.0 °F 50.0 °F 83% 29.95 in 8.0 mi ESE 5.8 mph - N/A   Clear
2:51 AM 54.0 °F 50.0 °F 86% 29.96 in 7.0 mi NE 3.5 mph - N/A   Clear
3:51 AM 53.1 °F 50.0 °F 89% 29.96 in 6.0 mi East 4.6 mph - N/A   Clear
4:51 AM 52.0 °F 48.9 °F 89% 29.96 in 5.0 mi East 4.6 mph - N/A   Clear
5:51 AM 52.0 °F 48.9 °F 89% 29.96 in 5.0 mi Calm Calm - N/A   Clear
6:51 AM 52.0 °F 48.0 °F 86% 29.97 in 4.0 mi Calm Calm - N/A   Clear
7:51 AM 57.9 °F 50.0 °F 75% 29.99 in 6.0 mi East 3.5 mph - N/A   Haze
8:51 AM 66.0 °F 46.0 °F 48% 30.00 in 10.0 mi Variable 4.6 mph - N/A   Clear
9:51 AM 70.0 °F 45.0 °F 41% 30.02 in 9.0 mi Calm Calm - N/A   Clear
10:51 AM 68.0 °F 53.1 °F 59% 30.04 in 6.0 mi Variable 5.8 mph - N/A   Haze
11:51 AM 71.1 °F 54.0 °F 55% 30.02 in 8.0 mi SSW 6.9 mph - N/A   Clear
12:51 PM 72.0 °F 54.0 °F 53% 30.01 in 10.0 mi SSW 9.2 mph - N/A   Clear
1:51 PM 73.9 °F 50.0 °F 43% 29.99 in 10.0 mi WSW 3.5 mph - N/A   Clear
2:51 PM 75.0 °F 53.1 °F 46% 29.97 in 9.0 mi SSW 9.2 mph - N/A   Clear
3:51 PM 66.0 °F 54.0 °F 65% 29.97 in 10.0 mi WSW 5.8 mph - N/A   Clear
4:51 PM 70.0 °F 51.1 °F 51% 29.96 in 10.0 mi South 5.8 mph - N/A   Clear
5:51 PM 64.9 °F 51.1 °F 61% 29.96 in 10.0 mi SW 5.8 mph - N/A   Clear
6:51 PM 64.9 °F 48.9 °F 56% 29.97 in 10.0 mi Calm Calm - N/A   Clear
7:51 PM 64.0 °F 50.0 °F 60% 29.97 in 10.0 mi Calm Calm - N/A   Clear
8:51 PM 63.0 °F 48.9 °F 60% 29.97 in 10.0 mi Calm Calm - N/A   Clear
9:51 PM 61.0 °F 50.0 °F 67% 29.97 in 10.0 mi North 3.5 mph - N/A   Clear
10:51 PM 63.0 °F 39.9 °F 43% 29.97 in 10.0 mi NNE 3.5 mph - N/A   Clear
11:51 PM 62.1 °F 37.0 °F 39% 29.97 in 10.0 mi NE 3.5 mph - N/A   Clear